Tracking 17149 objects as of 22-May-2015
HD Live streaming from Space Station

METEOSAT 5 AKM

Track METEOSAT 5 AKM now!
METEOSAT 5 AKM is classified as:


NORAD ID: 21904
Int'l Code: 1991-015E
Perigee: 35,146.3 km
Apogee: 36,502.3 km
Inclination: 14.3 °
Period: 1,437.7 minutes
Semi major axis: 42195 km
RCS: 0.9471 m2 (medium)
Launch date: March 2, 1991
Source: European Space Agency (ESA)

Note: This is a ROCKET BODY
Your satellite tracking list
Your tracking list is empty





NASA's NSSDC Master Catalog

Two Line Element Set (TLE):
1 21904U 91015E   15131.37159431 -.00000265  00000-0  00000+0 0  9999
2 21904 014.2646 013.3079 0160685 125.6660 199.4751 01.00162941 75873

Source of the keplerian elements: AFSPC

N2YO: 373